This demonstration page uses our WeatherBlox Daily Observations layout. Learn more.

Left ArrowRight Arrow

39.92423, -83.80882

Hourly Observations for July 9, 2022

Temp ( °F °C ) Dew Point ( °F °C ) Humidity (%) Winds ( mph kmh ) Pressure ( in mb ) Visibility ( mi km ) Precip ( " mm )
12:23 am 00:23 Cloudy N/A N/A N/A ENE 6 9 N/A 10 16 0.00 0.00
12:33 am 00:33 Cloudy N/A N/A N/A NE 6 9 N/A 10 16 0.00 0.00
12:47 am 00:47 Cloudy with Haze N/A N/A N/A NE 8 13 N/A 5 8 0.00 0.00
12:56 am 00:56 Cloudy with Light Rain N/A N/A N/A NE 8 13 N/A 3 4 0.00 0.00
1:04 am 01:04 Cloudy N/A N/A N/A ENE 8 13 N/A 5 8 0.00 0.00
1:12 am 01:12 Cloudy N/A N/A N/A ENE 7 11 N/A 7 11 0.00 0.00
1:27 am 01:27 Cloudy N/A N/A N/A ENE 5 7 N/A 10 16 0.00 0.00
1:56 am 01:56 Cloudy N/A N/A N/A ENE 5 7 N/A 10 16 0.00 0.00
2:56 am 02:56 Cloudy N/A N/A N/A NE 7 11 N/A 10 16 0.00 0.00
3:56 am 03:56 Cloudy 66 19 N/A N/A ENE 5 7 30.04 1017 10 16 0.00 0.00
4:56 am 04:56 Cloudy 66 19 N/A N/A NE 6 9 30.04 1017 10 16 0.00 0.00
5:56 am 05:56 Cloudy 66 19 N/A N/A NE 8 13 30.04 1017 10 16 0.00 0.00
6:42 am 06:42 Cloudy 66 19 N/A N/A NE 8 13 30.04 1017 9 14 0.00 0.00
6:56 am 06:56 Cloudy 66 19 N/A N/A NE 8 13 30.05 1018 10 16 0.00 0.00
7:38 am 07:38 Cloudy 66 19 N/A N/A NE 6 9 30.05 1017 10 16 0.00 0.00
7:56 am 07:56 Cloudy 66 19 N/A N/A NE 8 13 30.06 1018 10 16 0.00 0.00
8:21 am 08:21 Cloudy 66 19 N/A N/A NE 7 11 30.06 1018 10 16 0.00 0.00
8:56 am 08:56 Cloudy 68 20 N/A N/A NE 8 13 30.07 1018 10 16 0.00 0.00
9:56 am 09:56 Cloudy 70 21.1 70 21.1 100 100 NE 9 15 30.08 1019 10 16 0.00 0.00
10:56 am 10:56 Cloudy 72 22.2 71 21.7 97 97 NE 9 15 30.09 1019 10 16 0.00 0.00
11:56 am 11:56 Partly Cloudy 75 23.9 71 21.7 88 88 NE 8 13 30.09 1019 10 16 0.00 0.00
12:56 pm 12:56 Partly Cloudy 78 25.6 70 21.1 76 76 ENE 9 15 30.04 1017 10 16 0.00 0.00
1:56 pm 13:56 Mostly Cloudy 80 26.7 70 21.1 71 71 NE 10 17 30.04 1017 10 16 0.00 0.00
2:56 pm 14:56 Partly Cloudy 82 27.8 69 20.6 65 65 ENE 10 17 30.01 1016 10 16 0.00 0.00
3:56 pm 15:56 Partly Cloudy 83 28.3 69 20.6 63 63 NE 10 17 30.04 1017 10 16 0.00 0.00
4:56 pm 16:56 Mostly Sunny 82 27.8 68 20 63 63 NE 15 24 30.03 1017 10 16 0.00 0.00
5:56 pm 17:56 Mostly Sunny 79 26.1 67 19.4 67 67 NE 15 24 30.04 1017 10 16 0.00 0.00
6:56 pm 18:56 Mostly Sunny 77 25 67 19.4 71 71 NNE 15 24 30.04 1017 10 16 0.00 0.00
7:56 pm 19:56 Sunny 76 24.4 65 18.3 69 69 NNE 17 28 30.05 1018 10 16 0.00 0.00
8:56 pm 20:56 Sunny 72 22.2 62 16.7 71 71 NNE 16 26 30.06 1018 10 16 0.00 0.00
9:56 pm 21:56 Clear 70 21.1 57 13.9 64 64 NNE 12 19 30.08 1019 10 16 0.01 0.25
10:56 pm 22:56 Clear 65 18.3 54 12.2 68 68 NNE 7 11 30.09 1019 10 16 0.00 0.00
11:56 pm 23:56 Clear 65 18.3 51 10.6 61 61 NNE 9 15 30.08 1019 10 16 0.00 0.00

Powered by AerisWeather